Temp
15 14 14 14 13 13 13 13 13 12 12 11 10 10 10 9 10 10 10 10 10 10 9 9 9 9 9 9 9 9 9 9 9 9 9 9 9 9 9 9 9 9
14 14 13 13 13 14 13 13 12 12 11 10 10 10 9 10 10 10 10 10 9 9 9 9 9 9 9 9 9 9 9 9 9 9 9 9 9 9 9 9 9 9
14 13 13 13 14 14 13 12 11 11 10 10 10 10 10 10 10 10 10 10 9 9 9 9 9 9 10 10 9 9 9 9 9 9 9 9 9 8 8 8 8 9
14 13 13 14 14 13 12 11 11 10 10 11 10 10 10 10 10 10 10 10 10 9 9 9 9 9 10 10 9 9 9 9 9 9 9 8 8 8 8 8 8 8
14 13 13 14 13 12 11 11 10 10 11 11 10 10 10 10 10 10 10 10 10 10 9 10 9 9 9 9 9 9 9 9 9 8 8 8 8 8 8 8 7 8
13 13 13 13 12 11 11 10 10 10 11 10 10 10 10 10 10 10 10 10 10 10 10 10 10 10 9 9 9 9 9 9 8 8 8 8 8 8 7 7 7 7
13 13 13 12 11 11 10 10 10 10 10 10 10 10 10 10 10 10 10 11 11 10 10 10 10 10 10 9 9 9 9 9 8 8 8 8 8 7 7 7 7 7
13 13 12 11 11 10 10 10 10 10 10 10 10 10 10 10 10 10 10 10 10 10 10 10 10 10 10 9 9 9 9 9 8 8 8 8 8 8 7 8 7 7
13 12 12 11 11 10 10 10 10 10 10 10 10 10 10 10 10 10 10 10 10 10 10 10 10 10 10 9 9 9 9 9 8 8 8 8 8 8 8 8 7 7
12 12 11 11 10 10 10 10 10 10 10 10 10 10 10 10 11 11 10 10 10 10 10 10 10 10 10 9 9 9 9 9 9 8 8 8 8 8 8 8 8 8
12 11 11 10 10 10 10 10 10 10 10 10 10 10 10 11 11 11 10 10 10 10 10 10 10 10 10 10 9 9 9 9 9 9 8 8 8 8 8 8 8 8
12 11 10 10 10 10 10 10 10 10 10 10 10 10 11 11 11 11 10 10 10 10 10 10 10 10 10 10 10 9 9 9 9 9 9 8 8 8 8 8 8 8
11 11 10 10 10 10 10 10 10 10 10 10 10 10 11 11 11 11 10 10 10 10 10 10 10 10 10 10 10 10 9 9 9 9 9 9 8 8 8 8 8 8
11 11 10 10 10 10 10 10 10 10 10 10 10 11 11 11 11 11 10 10 10 10 10 10 10 10 10 10 10 10 10 9 9 9 9 9 9 8 8 8 8 8
11 10 10 10 10 10 10 10 10 10 10 10 10 11 11 11 11 11 11 10 10 10 10 10 10 10 10 10 10 10 10 10 10 9 9 9 9 9 8 8 8 8
11 10 10 10 10 10 10 10 10 10 10 10 10 11 11 11 11 11 10 10 10 10 10 10 10 10 10 10 10 10 10 10 10 10 9 9 9 9 9 8 8 8
11 10 10 10 10 10 10 10 10 10 10 10 10 11 11 11 11 10 10 10 10 10 10 10 10 10 10 10 10 10 10 10 10 10 9 9 9 9 9 8 8 8
11 10 10 10 10 10 10 10 10 10 10 10 10 11 10 10 10 10 10 10 10 10 10 10 10 10 10 10 10 10 10 10 10 10 10 9 9 9 9 9 8 8
11 11 10 10 10 10 10 10 10 10 10 10 10 11 10 10 10 10 10 10 10 11 10 10 10 10 10 10 10 10 10 10 10 10 10 9 9 9 9 9 9 8
11 11 10 10 10 10 10 10 10 10 10 10 10 11 10 10 10 10 10 10 10 11 11 11 10 10 10 10 10 10 10 10 10 10 10 10 9 9 9 9 9 8
11 11 10 10 10 10 10 10 10 10 10 10 11 11 10 10 10 10 10 10 10 11 11 11 10 10 10 10 10 10 10 10 10 10 10 10 10 9 9 9 9 8
11 11 11 10 10 10 10 10 10 10 10 11 11 11 10 10 10 11 11 11 10 10 10 11 10 10 10 10 10 10 10 10 10 10 10 10 10 10 9 9 9 8
11 11 11 10 10 10 10 10 10 10 10 11 11 10 10 10 10 11 11 11 10 10 10 11 11 11 10 10 10 10 10 10 10 10 10 10 10 10 10 9 9 9
11 11 11 10 10 10 10 10 10 10 10 10 10 10 10 10 11 11 11 10 10 10 10 11 11 11 11 10 10 10 10 10 10 10 11 11 10 10 10 10 9 9
11 11 10 10 10 10 10 10 10 10 10 10 10 10 10 10 11 11 11 11 10 10 10 10 11 11 11 11 10 10 10 10 11 11 11 11 10 10 10 10 10 9
11 10 10 10 10 10 10 10 10 10 10 10 10 10 10 10 11 11 11 11 11 11 10 10 11 11 11 11 11 11 11 11 11 11 11 11 11 10 10 10 10 10
Height
1568 1569 1570 1570 1570 1570 1570 1570 1570 1570 1570 1569 1569 1569 1569 1569 1569 1568 1568 1568 1567 1567 1567 1567 1566 1566 1565 1564 1564 1563 1562 1561 1560 1559 1558 1557 1556 1555 1555 1554 1553 1552
1568 1569 1570 1570 1570 1570 1570 1570 1570 1570 1570 1570 1570 1569 1569 1569 1569 1569 1569 1569 1569 1568 1568 1568 1567 1567 1566 1565 1565 1564 1563 1562 1561 1560 1559 1558 1558 1556 1555 1554 1553 1552
1568 1569 1570 1570 1570 1570 1570 1570 1570 1570 1570 1570 1570 1570 1570 1570 1570 1570 1570 1570 1570 1570 1569 1569 1568 1568 1567 1566 1566 1565 1564 1563 1562 1561 1560 1559 1558 1557 1556 1555 1554 1552
1568 1569 1569 1569 1570 1570 1570 1570 1570 1570 1570 1571 1570 1571 1571 1571 1571 1571 1571 1571 1571 1571 1570 1570 1569 1568 1568 1567 1566 1565 1564 1563 1563 1562 1561 1560 1559 1558 1557 1556 1554 1553
1568 1569 1569 1569 1569 1570 1570 1570 1570 1571 1571 1571 1571 1572 1572 1572 1572 1572 1572 1572 1571 1571 1571 1570 1570 1569 1568 1568 1567 1566 1565 1564 1563 1562 1562 1561 1560 1559 1558 1556 1555 1554
1568 1569 1569 1569 1569 1570 1570 1570 1571 1571 1572 1572 1572 1573 1573 1573 1573 1573 1573 1573 1572 1572 1572 1571 1571 1570 1569 1569 1568 1567 1566 1565 1564 1563 1562 1561 1560 1559 1558 1557 1556 1554
1568 1569 1569 1569 1569 1570 1570 1571 1571 1572 1572 1573 1573 1573 1574 1574 1574 1574 1574 1574 1573 1573 1573 1572 1571 1571 1570 1570 1569 1568 1567 1566 1565 1564 1563 1562 1561 1560 1559 1558 1556 1555
1568 1568 1568 1569 1569 1570 1571 1571 1572 1572 1573 1574 1574 1574 1575 1575 1576 1575 1575 1575 1575 1574 1573 1573 1572 1572 1571 1571 1570 1569 1568 1567 1566 1565 1564 1562 1561 1560 1559 1558 1557 1555
1567 1568 1568 1569 1569 1570 1571 1571 1572 1573 1573 1574 1575 1575 1576 1576 1576 1576 1576 1576 1576 1575 1574 1573 1573 1572 1572 1571 1571 1570 1569 1568 1567 1566 1564 1563 1562 1561 1560 1558 1557 1555
1566 1567 1568 1569 1570 1570 1571 1571 1572 1573 1574 1574 1575 1576 1576 1577 1577 1577 1577 1577 1577 1576 1575 1574 1574 1573 1572 1572 1571 1571 1570 1569 1568 1566 1565 1564 1563 1561 1560 1559 1557 1556
1566 1567 1568 1569 1570 1571 1571 1572 1572 1573 1574 1575 1575 1576 1577 1577 1577 1577 1577 1578 1577 1577 1576 1575 1574 1574 1573 1572 1572 1571 1570 1569 1568 1567 1566 1565 1563 1562 1561 1560 1558 1556
1566 1567 1568 1569 1570 1571 1571 1572 1572 1573 1574 1575 1576 1576 1577 1577 1578 1578 1578 1578 1578 1577 1577 1576 1575 1574 1573 1573 1572 1571 1571 1570 1569 1568 1567 1565 1564 1563 1562 1560 1559 1557
1566 1567 1568 1569 1570 1571 1571 1572 1572 1573 1574 1575 1576 1576 1577 1577 1578 1578 1578 1578 1578 1577 1577 1576 1575 1575 1574 1573 1572 1572 1571 1570 1569 1568 1567 1566 1565 1564 1562 1561 1559 1557
1567 1568 1569 1570 1570 1571 1572 1572 1573 1574 1574 1575 1575 1576 1576 1577 1577 1578 1578 1578 1578 1578 1577 1577 1576 1575 1574 1573 1573 1572 1571 1570 1570 1569 1568 1567 1565 1564 1563 1561 1560 1558
1567 1568 1569 1570 1570 1571 1571 1572 1573 1573 1574 1574 1575 1575 1576 1576 1577 1578 1578 1578 1578 1577 1577 1577 1576 1575 1574 1574 1573 1572 1571 1571 1570 1569 1568 1567 1566 1565 1563 1562 1560 1558
1567 1568 1569 1569 1570 1570 1571 1572 1572 1573 1573 1574 1574 1575 1575 1576 1577 1578 1578 1578 1578 1577 1577 1576 1576 1575 1574 1574 1573 1572 1571 1570 1569 1569 1568 1567 1566 1565 1564 1562 1560 1558
1567 1567 1568 1569 1569 1570 1570 1571 1572 1572 1573 1573 1574 1575 1575 1576 1577 1577 1577 1578 1577 1577 1577 1576 1576 1575 1574 1574 1573 1572 1571 1570 1569 1568 1567 1567 1566 1565 1564 1562 1560 1559
1566 1566 1567 1568 1568 1569 1570 1570 1571 1571 1572 1573 1574 1574 1575 1576 1577 1577 1577 1577 1577 1577 1576 1576 1575 1575 1574 1574 1573 1572 1571 1570 1569 1568 1567 1566 1566 1564 1563 1562 1560 1559
1565 1566 1566 1567 1567 1568 1569 1569 1570 1571 1572 1573 1573 1574 1575 1576 1577 1577 1577 1577 1576 1576 1576 1575 1575 1574 1574 1573 1573 1572 1571 1570 1569 1568 1567 1566 1565 1564 1563 1562 1560 1559
1565 1565 1565 1566 1567 1567 1568 1569 1570 1571 1572 1573 1573 1574 1575 1576 1576 1576 1576 1576 1576 1576 1576 1575 1575 1574 1573 1573 1572 1571 1570 1570 1569 1568 1567 1566 1565 1564 1563 1561 1560 1559
1564 1564 1564 1565 1566 1566 1567 1568 1569 1570 1571 1572 1573 1574 1575 1575 1575 1575 1575 1576 1576 1575 1575 1575 1574 1574 1573 1572 1572 1571 1570 1569 1568 1568 1567 1566 1565 1564 1563 1561 1560 1559
1564 1564 1564 1564 1565 1566 1567 1568 1569 1570 1571 1572 1573 1574 1574 1574 1574 1574 1574 1575 1575 1575 1574 1574 1573 1573 1572 1571 1571 1570 1569 1569 1568 1567 1566 1565 1564 1563 1562 1561 1560 1559
1563 1563 1563 1563 1564 1565 1566 1567 1568 1569 1571 1572 1572 1573 1573 1573 1573 1573 1574 1574 1574 1574 1573 1572 1572 1572 1571 1571 1570 1569 1569 1568 1567 1566 1566 1565 1564 1563 1562 1561 1560 1559
1562 1562 1563 1563 1563 1564 1565 1567 1568 1569 1570 1571 1571 1572 1572 1572 1572 1572 1573 1573 1573 1573 1572 1571 1571 1570 1570 1570 1569 1569 1568 1567 1567 1566 1565 1564 1564 1563 1562 1560 1559 1558
1561 1562 1562 1562 1563 1564 1565 1566 1567 1569 1570 1570 1571 1571 1571 1572 1572 1572 1572 1572 1572 1572 1571 1570 1570 1569 1569 1568 1568 1568 1567 1566 1566 1565 1565 1564 1563 1563 1562 1560 1559 1558
1560 1561 1562 1562 1563 1564 1565 1566 1567 1568 1569 1569 1570 1570 1570 1571 1571 1571 1571 1571 1571 1571 1570 1570 1569 1568 1568 1567 1567 1567 1566 1566 1565 1565 1564 1564 1563 1562 1561 1560 1559 1558
Wind_Speed
6 5 5 5 5 6 6 4 2 1 5 9 10 9 9 8 7 9 10 12 13 14 14 14 14 15 15 15 15 16 16 17 18 18 17 16 16 16 15 15 13 12
6 6 5 6 6 6 3 1 2 5 8 10 9 9 9 8 7 8 10 11 12 12 12 12 12 13 14 14 13 14 15 15 16 17 16 17 17 18 18 18 17 15
6 6 5 5 5 4 3 4 6 9 9 9 9 9 9 9 10 11 11 12 12 11 10 10 10 12 14 14 14 15 15 15 15 15 15 16 17 18 19 20 19 18
6 6 4 5 4 3 6 7 9 11 10 11 11 10 9 10 11 12 13 12 12 11 9 9 11 13 15 15 15 15 15 15 15 14 14 15 16 17 19 19 19 19
6 5 4 5 5 6 8 9 12 13 14 16 16 14 13 12 11 12 13 12 12 12 10 10 12 14 15 16 16 15 15 15 14 13 13 14 15 16 17 17 18 19
7 6 5 6 8 9 9 12 15 17 19 20 20 19 18 17 15 15 14 13 12 11 10 11 12 14 15 16 16 15 15 15 14 13 14 14 15 16 16 17 18 19
7 7 8 10 11 11 11 14 18 20 20 19 19 19 19 18 18 18 16 15 13 11 11 11 12 13 14 15 15 15 16 17 17 16 16 16 15 15 15 17 18 19
8 8 10 12 13 13 12 16 19 20 17 15 15 16 15 15 16 16 16 15 15 14 13 13 12 12 13 13 14 15 16 18 19 19 18 18 18 17 17 18 19 20
8 11 13 14 16 16 16 18 19 18 16 13 13 13 12 12 13 14 14 13 14 15 16 15 14 13 12 12 12 14 15 17 18 19 19 19 20 20 19 19 20 22
10 13 15 17 18 18 18 19 19 16 14 12 11 11 10 10 11 12 12 12 12 13 15 15 15 14 13 12 12 12 14 15 16 17 18 18 19 20 20 20 21 24
12 15 17 19 19 18 18 18 17 14 12 11 10 9 8 9 10 10 10 10 11 12 12 13 15 15 14 13 12 12 12 13 15 15 16 17 17 18 20 21 22 24
13 16 19 20 19 18 17 16 14 12 10 10 8 7 7 7 8 8 8 9 10 11 11 12 13 14 14 14 13 12 11 11 13 14 14 15 16 17 18 19 21 24
15 17 20 20 20 18 16 14 12 10 8 7 6 6 5 5 6 7 8 8 9 10 10 10 11 12 13 13 14 13 12 11 11 12 13 13 14 15 17 18 20 22
16 18 20 20 18 16 14 12 10 9 7 5 4 4 4 4 5 7 7 8 9 9 9 9 10 10 11 12 13 14 13 12 11 11 12 13 13 14 15 17 19 21
17 18 19 19 17 15 13 12 9 7 5 4 4 3 3 4 5 6 7 8 8 8 8 8 9 9 10 11 12 13 14 14 13 12 12 13 13 14 15 16 18 20
14 16 18 17 16 14 12 11 8 6 5 3 2 2 2 3 4 5 6 7 7 7 8 8 8 8 8 10 11 12 13 14 14 13 13 13 14 14 14 15 17 20
11 14 14 14 14 13 12 10 8 6 6 4 2 1 2 3 2 4 6 6 6 7 8 7 6 6 7 8 10 11 12 14 15 14 14 14 14 15 15 14 16 19
7 11 12 12 13 13 12 10 9 7 6 5 3 1 2 3 3 4 5 5 5 5 5 5 5 5 6 7 9 10 12 13 14 15 14 14 14 15 14 13 14 17
2 7 10 11 12 12 12 12 11 9 8 6 4 2 1 2 3 4 5 5 5 5 4 4 4 4 5 6 7 9 11 12 13 14 14 14 14 14 14 13 13 15
2 3 9 11 11 12 13 13 13 11 10 8 6 4 2 2 4 6 6 6 7 6 6 6 6 6 6 7 7 8 10 11 13 14 14 14 13 14 13 12 12 14
2 1 6 10 11 12 14 14 14 13 12 10 8 5 3 4 5 6 6 6 7 8 8 9 8 7 8 8 7 8 10 11 12 13 14 13 13 13 13 12 12 12
2 2 5 8 11 14 16 15 14 14 12 10 6 3 3 4 6 6 5 5 7 8 10 10 9 8 9 9 8 8 9 11 12 12 13 13 13 13 13 12 11 11
3 4 5 7 11 15 17 16 15 14 11 7 4 2 3 5 6 5 4 5 6 7 9 9 8 8 9 9 9 9 10 11 11 11 11 12 12 12 12 12 11 10
6 6 6 7 11 15 16 16 15 13 9 5 3 2 3 4 4 4 4 5 6 7 9 10 9 8 8 9 10 10 10 10 10 9 9 9 9 10 11 11 11 9
10 8 8 8 10 13 14 15 14 11 8 5 4 3 2 3 4 4 4 4 6 8 9 11 11 9 8 9 9 10 10 10 9 8 7 7 8 9 10 11 11 10
12 10 9 10 11 11 12 13 12 10 8 6 5 4 4 4 4 5 5 5 6 8 10 11 11 10 9 8 8 9 10 9 7 6 6 6 7 9 10 11 11 11
Wind_Direction
224 232 242 255 268 279 291 298 294 34 58 62 59 58 67 75 76 64 56 60 65 68 68 63 59 57 56 57 52 49 49 45 43 44 42 42 41 36 32 27 18 7
221 226 238 254 268 277 272 207 135 80 73 69 62 60 67 73 78 70 59 61 68 70 64 52 46 44 44 48 45 42 43 39 36 36 33 32 32 28 28 28 25 21
220 225 233 255 269 263 187 148 108 88 80 74 70 62 62 72 79 75 65 61 62 64 61 47 39 38 38 40 36 33 33 31 30 30 25 24 23 21 23 25 26 27
219 221 235 258 254 193 149 126 103 94 87 81 79 73 73 78 78 73 64 57 52 50 47 40 36 36 35 34 30 27 28 26 26 26 21 19 19 18 21 24 26 28
217 227 241 239 198 156 137 118 105 100 94 88 84 79 78 77 73 66 58 51 45 38 35 34 34 34 31 28 25 23 25 26 27 25 18 17 16 16 20 24 24 23
213 227 214 191 167 149 135 120 112 106 98 90 83 79 77 75 71 64 56 51 43 33 32 35 35 32 29 26 24 23 25 30 33 27 17 15 15 15 20 22 20 17
206 205 180 167 159 154 143 128 121 113 102 93 86 83 79 75 72 66 62 58 52 44 40 39 36 32 28 27 27 24 28 38 43 35 27 25 24 24 25 23 19 13
189 173 161 158 158 157 149 136 129 120 109 100 92 87 82 76 71 68 64 60 58 56 51 45 41 37 32 30 29 25 28 41 47 43 40 40 38 36 32 27 20 13
165 157 155 154 153 153 149 143 136 127 116 107 97 91 85 77 70 67 62 56 54 53 53 51 48 44 40 32 28 24 24 35 44 44 42 41 40 37 33 27 20 12
154 154 154 152 152 151 149 147 142 133 121 113 106 98 89 79 71 66 59 51 45 43 46 49 47 44 41 32 25 21 19 25 36 41 40 37 36 33 28 23 17 12
155 156 154 153 154 152 150 149 146 138 127 121 116 105 90 77 68 61 51 41 34 32 34 40 41 39 36 32 25 18 14 16 24 35 38 35 32 28 24 20 14 11
159 158 155 155 155 153 152 150 147 141 133 128 122 106 86 71 61 49 37 26 21 19 21 27 32 32 30 30 26 20 14 10 13 22 29 30 28 23 19 16 12 10
159 158 156 156 156 156 156 153 151 150 144 137 126 103 79 65 51 31 19 12 4 4 9 14 19 23 24 25 25 22 16 9 7 10 15 19 20 17 13 10 9 7
157 155 156 157 159 160 160 156 152 151 148 141 124 101 73 49 26 5 358 355 350 350 357 2 6 13 17 18 20 20 16 12 6 2 4 8 9 10 7 4 4 4
162 159 161 163 165 165 161 154 146 139 133 122 103 80 47 14 348 335 335 340 341 345 350 354 358 3 8 12 14 14 12 11 9 2 359 359 0 3 2 358 358 1
173 173 173 172 171 170 166 159 153 145 137 122 100 58 8 342 324 320 327 332 336 342 345 347 351 356 2 5 9 9 5 4 5 3 358 355 354 357 358 355 355 358
177 179 178 176 173 173 173 173 172 166 155 151 148 80 20 0 335 322 321 321 325 332 337 343 348 355 1 1 0 2 1 359 359 360 359 355 352 353 354 354 355 357
167 174 176 178 177 177 182 184 183 180 171 173 184 142 53 26 355 320 307 300 304 318 332 341 346 352 359 355 349 350 354 356 355 354 356 355 352 352 351 351 355 358
137 174 178 186 188 188 193 191 187 189 186 187 196 187 118 10 344 323 309 297 293 303 324 337 341 340 341 342 339 338 343 349 351 350 351 351 351 351 350 348 354 359
37 174 182 194 201 196 191 189 189 192 193 197 201 203 221 300 320 316 312 303 296 300 316 330 337 329 320 322 327 328 332 339 346 347 347 347 347 350 351 347 351 359
12 299 187 196 204 196 187 188 191 194 197 202 205 211 246 296 308 303 302 301 300 304 312 321 328 323 313 310 314 320 324 330 338 344 344 344 345 348 351 349 349 355
272 271 196 195 202 196 189 188 192 196 200 202 206 222 271 303 304 294 293 303 308 310 312 317 322 319 311 306 306 310 317 323 331 339 341 342 345 349 351 350 349 351
246 248 210 202 202 196 193 194 194 196 197 196 199 239 291 303 296 283 289 307 315 318 318 318 320 318 309 304 304 307 311 317 324 333 340 341 345 351 351 348 348 347
216 223 214 207 200 195 195 197 195 191 190 190 202 250 302 307 294 288 297 304 314 325 326 321 318 314 306 303 306 308 309 313 319 327 338 342 347 355 353 347 345 342
202 205 204 195 188 185 185 189 191 190 187 191 212 248 288 303 302 305 306 304 315 329 332 325 317 311 306 305 307 306 305 308 314 325 336 342 350 357 355 350 346 339
202 202 196 185 178 176 178 184 191 194 193 201 223 247 266 284 297 303 307 316 324 330 334 329 319 311 309 308 303 303 305 308 312 319 330 338 346 351 352 352 350 344